Home   Weather   Caen   Past weeks

Flag for France Past Weather in Caen, Lower Normandy, France — Yesterday and Last 2 Weeks

Now
25 °F

Ice fog.


Feels Like: 20 °F
Forecast: 24 / 36 °F
Wind: 3 mph from Southeast

Location: Caen Airport

Current Time: Jan 24, 2017 at 10:12:42 am

Latest Report: Jan 24, 2017 at 9:30 am


Visibility: 3 mi

Pressure: 30.39 "Hg

Humidity: 93%

Dew Point: 23 °F

Location of CaenLocation

Past Weather in Caen — Graph

°F

Caen Temperature Yesterday

Maximum temperature yesterday: 46 °F (at 2:30 pm)
Minimum temperature yesterday: 21 °F (at 8:30 am)
Average temperature yesterday: 32 °F

High & Low Weather Summary for the Past Weeks

 TemperatureHumidityPressure
High54 °F (Jan 11, 11:30 am)100% (Jan 9, 9:00 am)30.60 "Hg (Jan 9, 9:00 am)
Low18 °F (Jan 21, 8:30 am)46% (Jan 22, 2:30 pm)29.27 "Hg (Jan 12, 5:30 pm)
Average37 °F83%30.23 "Hg
* Reported Jan 9 9:00 am — Jan 24 9:00 am, Caen, Weather by CustomWeather, © 2017

Note: Actual official high and low records may vary slightly from our data, if they occured in-between our weather recording intervals... More about our weather records

Advertising

Caen Weather History for the Previous 24 Hours

Scroll right to see more
 ConditionsComfort  
Time TempWeatherWind HumidityBarometerVisibility
9:00 am
Tue, Jan 24
23 °FClear.3 mph93%30.39 "Hg4 mi
8:30 am23 °FClear.3 mph86%30.36 "Hg10 mi
8:00 am23 °FClear.3 mph86%30.36 "Hg6 mi
7:30 am23 °FClear.2 mph93%30.36 "Hg10 mi
7:00 am25 °FClear.1 mph93%30.36 "Hg10 mi
6:30 am25 °FClear.5 mph93%30.36 "Hg10 mi
6:00 am25 °FPassing clouds.3 mph93%30.36 "HgN/A
5:30 am25 °FClear.6 mph93%30.36 "Hg10 mi
5:00 am25 °FClear.6 mph93%30.36 "Hg10 mi
4:30 am25 °FClear.5 mph93%30.36 "Hg5 mi
4:00 am25 °FClear.3 mph93%30.36 "Hg4 mi
3:30 am23 °FClear.6 mph93%30.36 "Hg4 mi
3:00 am27 °FIce fog.2 mph93%30.36 "Hg3 mi
2:30 am25 °FClear.3 mph93%30.36 "Hg4 mi
2:00 am27 °FClear.2 mph93%30.36 "Hg4 mi
1:30 am27 °FClear.1 mph93%30.36 "Hg4 mi
1:00 am27 °FClear.1 mph93%30.36 "Hg4 mi
12:30 am28 °FClear.1 mph93%30.36 "Hg4 mi
12:00 am28 °FClear.3 mph93%30.36 "Hg4 mi
11:30 pm
Mon, Jan 23
30 °FClear.3 mph86%30.36 "Hg4 mi
11:00 pm28 °FClear.5 mph93%30.36 "Hg4 mi
10:30 pm30 °FClear.7 mph86%30.36 "Hg4 mi
10:00 pm30 °FClear.6 mph86%30.36 "Hg4 mi
9:30 pm30 °FClear.6 mph86%30.36 "Hg4 mi
9:00 pm32 °FClear.6 mph80%30.36 "Hg4 mi
8:30 pm32 °FClear.3 mph87%30.36 "Hg4 mi
8:00 pm30 °FClear.2 mph93%30.36 "Hg4 mi
7:30 pm34 °FClear.No wind87%30.36 "Hg5 mi
7:00 pm32 °FClear.No wind87%30.36 "Hg4 mi
6:30 pm34 °FClear.No wind75%30.36 "Hg4 mi
6:00 pm36 °FClear.No wind75%30.36 "Hg5 mi
5:30 pm39 °FClear.No wind70%30.36 "Hg4 mi
5:00 pm39 °FClear.3 mph70%30.36 "Hg6 mi
4:30 pm41 °FSunny.3 mph66%30.33 "Hg10 mi
4:00 pm41 °FClear.7 mph66%30.33 "Hg6 mi
3:30 pm43 °FSunny.5 mph57%30.33 "Hg10 mi
3:00 pm45 °FSunny.3 mph53%30.33 "Hg10 mi
2:30 pm46 °FSunny.No wind50%30.33 "Hg10 mi
2:00 pm45 °FSunny.1 mph46%30.33 "Hg10 mi
1:30 pm45 °FSunny.No wind49%30.36 "Hg10 mi
1:00 pm43 °FClear.No wind53%30.36 "Hg5 mi
12:30 pm41 °FClear.No wind57%30.36 "Hg4 mi
12:00 pm39 °FHaze.No wind61%30.36 "Hg3 mi
11:30 am36 °FFog.2 mph75%30.36 "Hg3 mi
11:00 am34 °FClear.1 mph75%30.36 "Hg4 mi
10:30 am32 °FIce fog.2 mph75%30.36 "Hg3 mi
10:00 am28 °FClear.1 mph86%30.36 "Hg4 mi
Weather by CustomWeather, © 2017

See weather overviewHow to use our weather pages